Regional Weather Roundup
Issued by NWS

Home | Current Version | Previous Version | Text Only | Print | Product List | Glossary Off
Versions: 1 2 3 4 5 6 7 8 9 10 11 12 13 14 15 16 17 18 19 20 21 22 23 24 25 26 27 28 29 30 31 32 33 34 35 36 37 38 39 40 41 42 43 44 45 46 47 48 49 50

000
ASUS45 KCYS 310310
RWRWY

WYOMING REGIONAL WEATHER ROUNDUP
NATIONAL WEATHER SERVICE CHEYENNE WY
900 PM MDT SUN AUG 30 2015

NOTE:  "FAIR" INDICATES FEW OR NO CLOUDS BELOW 12,000 FEET
WITH NO SIGNIFICANT WEATHER AND/OR OBSTRUCTIONS TO VISIBILITY.

WYZ001-310400-
YELLOWSTONE NATIONAL PARK

CITY           SKY/WX    TMP DP  RH WIND       PRES   REMARKS
LK YELLOWSTONE   N/A     53  30  41 CALM      30.17R
W YELLOWSTONE  NOT AVBL

$$
WYZ002>013-054>058-071-098>099-310400-
NORTHERN WYOMING

CITY           SKY/WX    TMP DP  RH WIND       PRES   REMARKS
JACKSON        FAIR      63  37  39 SW6       30.07R
CODY           FAIR      75  34  22 SW6G17    29.91R
GREYBULL       FAIR      82  42  24 W6        29.78R
WORLAND        FAIR      77  46  33 SW13      29.81R
SHERIDAN       FAIR      71  53  52 N6        29.78S
BUFFALO        FAIR      76  43  30 CALM      29.88F
GILLETTE       FAIR      78  46  32 S14       29.81S
HULETT         FAIR      77  46  33 SE9       29.82F
NEWCASTLE      FAIR      75  45  33 E6        29.85F

$$
WYZ014>020-022>026-101>103-310400-
CENTRAL WYOMING

CITY           SKY/WX    TMP DP  RH WIND       PRES   REMARKS
BIG PINEY      FAIR      62  37  39 W3        30.11R
PINEDALE       FAIR      66  34  30 SW7       30.11S
DUBOIS         FAIR      61  37  41 NW14      30.09R
LANDER         FAIR      70  41  34 SW14      29.96R
RIVERTON       FAIR      72  41  32 S12       29.95R
CASPER         FAIR      71  45  39 SW10      29.96R
DOUGLAS        FAIR      72  45  37 CALM      29.94R

$$
WYZ021-027>030-104>119-310400-
SOUTHERN WYOMING

CITY           SKY/WX    TMP DP  RH WIND       PRES   REMARKS
EVANSTON       MOCLDY    66  41  40 S13G24    30.15R
KEMMERER       MOCLDY    64  34  32 W7        30.13S
FORT BRIDGER   TSTM      64  52  63 S17       30.18R
ROCK SPRINGS   FAIR      67  44  43 SW6       30.10S
DIXON          CLOUDY    66  46  49 E14G24    30.17R
RAWLINS        FAIR      68  41  37 SW8       30.12F
SARATOGA       FAIR      63  46  55 SE15G24   30.19R
LARAMIE        FAIR      69  41  36 W31G40    30.19R
CHEYENNE       FAIR      72  44  36 W5        30.06R
TORRINGTON     MOCLDY    86  41  20 W10G17    29.89R
PINE BLUFFS    FAIR      73  43  33 CALM      29.99S

$$



USA.gov is the U.S. government's official web portal to all federal, state and local government web resources and services.